Meteo Giornale » Osservazioni meteo Gran Bretagna » Jersey
ore: 20:20 - Osservazioni Meteo Jersey
Lat. 49° 13' N Lon. 2° 12' W Alt. 84 metri s.l.m.
16 °C
Poco Nuvoloso
Temp. 24 Ore
16 °C
20 °C
Ovest
18.5 Km/h
Dew point 13 °C
Umidità 82 %
Visibilità 10 Km
Il sole sorge alle ore 06:23
Il sole tramonta alle ore 19:54
| Data e Ora | Cielo e Fenomeni | T °C | DP °C | Um. % | Pres. hPa | Vis. km | Vento km/h | |
|---|---|---|---|---|---|---|---|---|
| Oggi h: 20:20 | Poco Nuvoloso | 16 | 13 | 82 | 1021 | 10 | O 18.5 | |
| Oggi h: 19:50 | Poco Nuvoloso | 17 | 13 | 77 | 1020 | 10 | O 18.5 | |
| Oggi h: 19:20 | Poco Nuvoloso | 17 | 13 | 77 | 1020 | 10 | O 18.5 | |
| Oggi h: 18:50 | Poco Nuvoloso | 17 | 13 | 77 | 1020 | 10 | O 24 | |
| Oggi h: 18:20 | Poco Nuvoloso | 18 | 13 | 72 | 1020 | 10 | O 24 | |
| Oggi h: 17:50 | Poco Nuvoloso | 18 | 15 | 82 | 1020 | 10 | O 25.9 | |
| Oggi h: 17:20 | Poco Nuvoloso | 19 | 15 | 77 | 1020 | 10 | O 25.9 | |
| Oggi h: 16:50 | Poco Nuvoloso | 19 | 15 | 77 | 1019 | 10 | O 27.8 | |
| Oggi h: 16:20 | Nuvoloso | 19 | 15 | 77 | 1019 | 10 | O 27.8 | |
| Oggi h: 15:50 | Nuvoloso | 19 | 15 | 77 | 1019 | 10 | O 29.6 | |
| Oggi h: 15:20 | Nuvoloso | 19 | 15 | 77 | 1019 | 10 | O 27.8 | |
| Oggi h: 14:50 | Nuvoloso | 19 | 15 | 77 | 1019 | 10 | O 29.6 | |
| Oggi h: 13:50 | Nuvoloso | 19 | 15 | 77 | 1018 | 10 | O 25.9 | |
| Oggi h: 13:20 | Nuvoloso | 19 | 15 | 77 | 1018 | 10 | O 29.6 | |
| Oggi h: 12:50 | Poco Nuvoloso | 19 | 16 | 82 | 1017 | 10 | O 31.5 | |
| Oggi h: 12:20 | Poco Nuvoloso | 20 | 16 | 77 | 1017 | 10 | O 35.2 | |
| Oggi h: 11:50 | Poco Nuvoloso | 19 | 15 | 77 | 1017 | 10 | O 33.3 | |
| Oggi h: 11:20 | Poco Nuvoloso | 19 | 15 | 77 | 1017 | 10 | O 29.6 | |
| Oggi h: 10:50 | Poco Nuvoloso | 19 | 15 | 77 | 1016 | 10 | O 29.6 | |
| Oggi h: 10:20 | Poco Nuvoloso | 18 | 15 | 82 | 1016 | 10 | O 29.6 | |
| Oggi h: 09:50 | Nuvoloso | 18 | 15 | 82 | 1015 | 10 | O 27.8 | |
| Oggi h: 09:20 | Pioggia nelle vicinanze | 17 | 15 | 88 | 1015 | 10 | O 29.6 | |
| Oggi h: 08:50 | Pioggia nelle vicinanze | 17 | 15 | 88 | 1014 | 10 | O 31.5 | |
| Oggi h: 08:20 | Pioggia | 16 | 15 | 93 | 1013 | 6 | O 27.8 | |
| Oggi h: 07:50 | Pioggia nelle vicinanze | 17 | 15 | 88 | 1013 | 10 | O 42.6 | |
| Oggi h: 07:20 | Nuvoloso | 17 | 15 | 88 | 1013 | 10 | O 40.7 | |
| Oggi h: 06:50 | Nuvoloso | 17 | 15 | 88 | 1012 | 10 | O 42.6 | |
| Oggi h: 06:20 | Nuvoloso | 17 | 15 | 88 | 1012 | 10 | O 42.6 | |
| Oggi h: 05:50 | Molto Nuvoloso | 17 | 15 | 88 | 1012 | 10 | O 42.6 | |
| Oggi h: 05:20 | Coperto | 17 | 14 | 82 | 1011 | 10 | O 46.3 | |
| Oggi h: 04:50 | Molto Nuvoloso | 17 | 14 | 82 | 1011 | 10 | O 42.6 | |
| Oggi h: 04:20 | Nuvoloso | 17 | 14 | 82 | 1011 | 10 | O 38.8 | |
| Oggi h: 03:50 | Molto Nuvoloso | 17 | 15 | 88 | 1011 | 10 | O 42.6 | |
| Oggi h: 03:20 | Coperto | 17 | 15 | 88 | 1011 | 10 | O/SO 46.3 | |
| Oggi h: 02:50 | Molto Nuvoloso | 17 | 15 | 88 | 1011 | 10 | O/SO 44.4 | |
| Oggi h: 02:20 | Molto Nuvoloso | 17 | 15 | 88 | 1010 | 10 | O/SO 48.1 | |
| Oggi h: 01:50 | Molto Nuvoloso | 17 | 15 | 88 | 1010 | 10 | SO 37 | |
| Oggi h: 01:20 | Coperto | 18 | 15 | 82 | 1010 | 10 | O/SO 38.8 | |
| Oggi h: 00:50 | Molto Nuvoloso | 17 | 15 | 88 | 1010 | 10 | SO 40.7 | |
| Oggi h: 00:20 | Molto Nuvoloso | 18 | 15 | 82 | 1010 | 10 | SO 42.6 | |
| Ieri h: 23:50 | Molto Nuvoloso | 17 | 15 | 88 | 1010 | 10 | SO 40.7 | |
| Ieri h: 23:20 | Molto Nuvoloso | 17 | 15 | 88 | 1010 | 10 | SO 29.6 | |
| Ieri h: 22:50 | Molto Nuvoloso | 17 | 14 | 82 | 1010 | 10 | SO 33.3 | |
| Ieri h: 22:20 | Molto Nuvoloso | 17 | 14 | 82 | 1010 | 10 | SO 33.3 | |
| Ieri h: 21:50 | Molto Nuvoloso | 18 | 14 | 77 | 1010 | 10 | SO 35.2 | |
| Ieri h: 21:20 | Poco Nuvoloso | 18 | 15 | 82 | 1010 | 10 | SO 27.8 | |
| Ieri h: 20:50 | Sereno | 17 | 15 | 88 | 1010 | 10 | SO 22.2 | |



